DELTA 1 DEB, 29181

Orbit data source: Space-Track

DELTA 1 DEB, 29181 is space debris in LEO originally from a launch on Thu, 11 Jan 1968 UTC launched from the Air Force Western Test Range (AFWTR). Debris objects in space refer to the collection of defunct objects orbiting the Earth. Examples of debris include non-operational satellites, rocket bodies, and fragments generated from explosions, collisions, or faulty payload assembly.

Loading next visibility...
Identifier
29181, 1968-002E
Orbit
LEO
Country
Flag of USUS
Related business
Manufacturer
Unknown
Mission
Spacecraft
Bus & Motor
Unknown
Mass
Unknown
Launch date (UTC)
1968-01-11 (58 years ago)
Launch vehicle
Unknown
Launch site
Air Force Western Test Range (AFWTR)
Object type
Payload
Rocket body
Debris
Shape & HBR
Unknown shape, 0.1 m
Radar Cross Section
Small (<0.1 m²)

Expand to show TLE details & history
Last TLE update: 1 week ago

TLE from 1 week ago
0 DELTA 1 DEB
1 29181U 68002E   26118.61289699  .00000189  00000-0  80931-3 0  9997
2 29181 105.7938 241.1798 0303682 279.5809  77.1080 12.91953692297390
Epoch: 2026-04-28T14:42Z
TLE epoch observation values (Epoch: 2026-04-28T14:42:34.299Z)
Latitude
-0.00008°
Longitude
163.95121°
Altitude
1,251.025 km
Speed
7.251 km/s
True Right ascension
16h 04m 43s
True Declination
0° 00' 00"
Sunlit
Object was in full shadow at epoch
Visualization orbit readout
Latitude
Unknown
Longitude
Unknown
Altitude
Unknown
Speed
Unknown
Apparent Right ascension
Unknown
Apparent Declination
Unknown
Sunlit
N/A
Visualization observer readout
Local Sidereal Time
03:07:30
Azimuth
Unknown
Elevation
Unknown
Doppler factor
Unknown
Orbital elements
Apogee altitude
1,524.464 km
Perigee altitude
1,058.635 km
Semi-major axis
7,669.686 km
Eccentricity
0.03037
Inclination
105.7938°
RAAN
241.1798°
Arg. of periapsis
279.5809°
True anomaly
80.52715°
Mean anomaly
77.108°
Eccentric anomaly
78.81492°
Mean motion
3.2313 °/min
Orbital period
111.41 mins
BSTAR
0.00080931
Loading maneuver chart data...
Computing Atmospheric mass density...
Loading historical data...
Loading historical data...
Loading historical data...
Loading historical data...
Loading historical data...
Loading historical data...
Loading historical data...

Documentation

Showing up to 5 results
|